sat.trackr.live / text

‹ back to catalog

ARVAKER-1

NORAD 63252 · 2025-052AU

PAYLOAD ACTIVE UNKNOWN

§ Identity

Operator
Country
NOR
Launch date
2025-03-15
Launch site
AFWTR
Launch vehicle
Mass (kg)
RCS (m²)

External: N2YO · Heavens-Above · Gunter

§ Orbital elements

Epoch: 2026-05-24T23:36:06.505632Z

Period
96.36 min
Inclination
97.6902°
Eccentricity
0.0001370
Mean motion
14.94458366 rev/d
Perigee alt
583.1 km
Apogee alt
585.0 km
Semi-major
6,962.2 km
B*
1.8548e-4
RAAN
36.6575°
Arg perigee
337.9057°
Mean anomaly
22.2104°
Rev number
6,514

§ Raw data

ARVAKER-11 63252U 25052AU  26144.98340863  .00001944  00000+0  18548-3 0  99962 63252  97.6902  36.6575 0001370 337.9057  22.2104 14.94458366 65147

JSON: /api/v1/satellites/63252 · /tle

For live sub-satellite position, see the globe view (requires WebGL).

§ Visibility from observer

Set your observer location to see the next 7 days of passes ≥ 10°. The values pass through the URL so the page stays shareable.

No JS? Fill the form by hand. The geolocation button needs JavaScript.

§ Radio — SatNOGS DB

ModeDescriptionDownlinkUplink
FM Mode S - Transmitter 2.245 GHz

1 transmitter · refreshed weekly from db.satnogs.org